Location: Mason Neck State Park
(38.6428°N, 77.1981°W)
Time: 04:59:27
(UTC-04:00)

Daily predictions for brighter satellites

Satellite Brightness Start Highest point End
(mag) Time Altitude Azimuth Time Altitude Azimuth Time Altitude Azimuth
Cosmos 2251 Rocket 4.4 00:07:44 32° WSW 00:09:32 44° WNW 00:14:38 10° N
CZ-2C R/B 3.5 00:06:32 10° N 00:11:42 44° WNW 00:13:20 34° WSW
ATLAS 3B R/B 2.5 00:07:26 10° NW 00:13:59 67° WSW 00:14:51 60° SSW
Cosmos 2315 Rocket 4.2 00:14:09 49° SW 00:15:41 64° W 00:22:00 10° N
Cosmos 1626 3.6 00:17:39 34° NW 00:17:39 34° NW 00:20:18 10° N
Cosmos 1455 3.6 00:15:09 10° N 00:17:31 34° NNE 00:17:31 34° NNE
Cosmos 1766 Rocket 4.0 00:20:31 59° NNE 00:20:31 59° NNE 00:24:10 10° N
NOSS 3-2 (A) 4.0 00:12:53 10° NW 00:20:35 76° WSW 00:22:38 54° S
Cosmos 1408 Rocket 4.2 00:23:59 53° NNE 00:23:59 53° NNE 00:27:30 10° NNE
Terra 3.9 00:22:51 17° W 00:23:18 17° W 00:26:22 10° NW
Cosmos 1461 3.8 00:28:59 49° WNW 00:29:16 50° NW 00:33:54 10° NNE
H-2A R/B 3.1 00:37:18 38° NE 00:37:18 38° NE 00:40:19 10° N
Cosmos 1151 Rocket 4.3 00:33:24 10° N 00:36:31 34° NE 00:36:31 34° NE
Cosmos 2278 Rocket 3.4 00:35:25 27° WSW 00:37:38 37° WNW 00:42:53 10° N
Cosmos 2184 Rocket 3.9 00:32:13 10° N 00:38:36 76° E 00:39:15 69° SE
Cosmos 1992 Rocket 4.0 00:34:04 10° NNW 00:39:00 80° NNW 00:39:00 80° NNW
CZ-4B R/B 3.6 00:35:25 10° NNE 00:40:21 67° ENE 00:40:21 67° ENE
NOSS 3-2 (C) 4.0 00:35:23 10° NW 00:43:05 74° WSW 00:44:51 57° S
Cosmos 2228 Rocket 4.0 00:42:50 10° N 00:46:22 43° NE 00:46:22 43° NE
RESURS DK-1 3.5 00:52:09 42° N 00:52:09 42° N 00:55:00 10° NNE
Meteor 2-21 4.3 00:46:32 10° N 00:52:35 72° E 00:53:01 69° ESE
Cosmos 405 Rocket 4.4 00:51:43 10° N 00:53:47 31° N 00:53:47 31° N
Mayak -0.1 00:55:12 10° N 00:58:24 39° NW 00:58:24 39° NW
Cosmos 407 Rocket 3.6 01:02:56 70° NE 01:02:56 70° NE 01:07:32 10° NNE
Cosmos 2369 Rocket 3.4 01:10:58 30° E 01:10:58 30° E 01:15:18 10° NE
Cosmos 2151 4.0 01:12:07 42° NW 01:12:07 42° NW 01:15:16 10° N
Cosmos 1190 Rocket 4.0 01:11:37 77° NNW 01:11:37 77° NNW 01:16:33 10° NNE
Cosmos 1743 Rocket 4.4 01:14:34 48° NNW 01:14:34 48° NNW 01:17:56 10° N
Cosmos 2297 4.3 01:15:00 44° W 01:15:53 47° WNW 01:21:24 10° NNE
BREEZE M DEB (TANK) 4.3 01:01:49 10° WSW 01:19:26 63° NW 01:23:49 10° NE
CENTAUR R/B 3.1 01:18:21 10° NW 01:26:28 79° WSW 01:28:42 54° SSE
Nadezhda 1 Rocket 4.3 01:26:00 52° WSW 01:26:51 55° W 01:33:09 10° N
Cosmos 2082 Rocket 2.9 01:21:38 10° NW 01:26:25 43° W 01:26:25 43° W
USA 234 3.5 01:22:00 10° NE 01:28:30 66° NW 01:31:12 37° WSW
Meteor 2-10 Rocket 3.6 01:24:32 10° NNW 01:29:11 67° WNW 01:29:11 67° WNW
ADEOS Rocket 3.9 01:25:52 10° N 01:31:13 38° WNW 01:32:42 34° W
Meteor 2-16 Rocket 4.3 01:26:01 10° N 01:32:11 84° W 01:32:38 77° SSW
Sich 1 4.3 01:35:11 33° ENE 01:35:11 33° ENE 01:38:24 10° NNE
ATLAS 5 CENTAUR R/B 3.6 01:33:08 21° WNW 01:34:35 24° NW 01:38:33 10° N
Cosmos 1833 Rocket 3.9 01:33:34 10° NW 01:37:29 29° W 01:37:29 29° W
Cosmos 2098 Rocket 4.4 01:38:06 10° N 01:45:36 67° E 01:47:21 51° SE
In-Cosmos 22 Rocket 4.0 01:45:59 84° ENE 01:45:59 84° ENE 01:51:15 10° N
Cosmos 1023 Rocket 4.5 01:47:19 71° NW 01:47:19 71° NW 01:52:10 10° NNE
Cosmos 1707 Rocket 4.4 01:44:23 10° N 01:48:10 45° ENE 01:48:10 45° ENE
Cosmos 1633 Rocket 4.1 01:52:26 40° ENE 01:52:26 40° ENE 01:56:02 10° NNE
Cosmos 371 Rocket 3.6 01:50:01 10° NNW 01:54:04 58° NW 01:54:04 58° NW
PSLV R/B 3.8 01:56:10 10° NNE 02:00:32 76° N 02:00:32 76° N
Cosmos 1943 Rocket 2.1 02:04:50 67° ESE 02:05:00 68° ESE 02:10:31 10° NNE
Cosmos 1408 4.4 02:08:29 27° ENE 02:08:29 27° ENE 02:10:56 10° NNE
Cosmos 1892 3.9 02:10:56 40° N 02:10:56 40° N 02:13:29 10° N
Cosmos 1666 Rocket 3.8 02:14:25 64° N 02:14:25 64° N 02:18:09 10° N
Landsat 5 4.1 02:18:08 48° NE 02:18:08 48° NE 02:21:19 10° N
Cosmos 1741 Rocket 3.8 02:19:50 82° SSW 02:20:05 90° SE 02:25:25 10° NNE
CZ-2D R/B 3.6 02:16:28 10° NE 02:20:53 26° E 02:22:14 24° ESE
CZ-4B R/B 3.2 02:25:33 28° NNE 02:25:33 28° NNE 02:27:19 10° N
ATLAS 5 CENTAUR R/B 4.4 02:23:06 21° SE 02:25:19 27° E 02:35:37 10° NE
GP-B 3.8 02:27:01 10° NNE 02:31:18 44° E 02:31:41 43° ESE
Meteor 2-3 Rocket 3.6 02:33:47 64° SSW 02:34:44 87° W 02:40:32 10° N
Cosmos 2242 Rocket 3.9 02:31:15 10° N 02:35:42 58° E 02:36:04 56° ESE
BREEZE-M DEB (TANK) 3.6 02:38:13 39° WSW 02:40:53 85° NNW 02:44:00 10° NE
Cosmos 468 Rocket 4.4 02:36:25 10° N 02:41:29 57° ENE 02:43:28 34° SE
Lacrosse 4 Rocket 2.4 02:47:55 37° ESE 02:48:04 37° ESE 02:52:09 10° NE
Fregat R/B Cluster 11 4.2 02:54:03 47° ENE 02:54:03 47° ENE 02:56:34 10° NE
Cosmos 2369 Rocket 3.2 02:52:45 30° W 02:54:18 36° WNW 02:59:29 10° N
Spot 2 4.2 02:50:29 10° N 02:54:47 57° WNW 02:54:50 57° WNW
Cosmos 2218 Rocket 4.4 02:49:46 10° NNW 02:55:31 42° W 02:56:32 39° WSW
Resurs 1-4 Rocket 2.4 02:51:31 10° NNE 02:56:47 58° E 02:58:24 41° SSE
AQUA 4.0 02:52:59 10° NNE 02:57:43 65° ESE 02:58:40 52° SSE
Cosmos 1570 Rocket 4.0 02:59:36 10° NNW 03:04:48 61° WSW 03:05:36 54° SW
Cosmos 1862 Rocket 3.8 03:10:31 10° NNW 03:14:52 52° W 03:15:07 51° WSW
Cosmos 1703 Rocket 4.1 03:11:17 10° N 03:15:37 54° E 03:17:34 29° SE
SL-16 R/B 2.4 03:15:15 30° S 03:18:33 83° WSW 03:24:46 10° NNW
Cosmos 1606 3.2 03:16:46 10° NNW 03:20:07 45° WNW 03:20:07 45° WNW
UNK 3.6 03:19:44 46° S 03:21:05 78° WSW 03:25:46 10° NNW
PSLV R/B 3.7 03:22:50 51° N 03:22:50 51° N 03:25:37 10° ENE
SL-24 DEB 4.1 03:22:34 45° S 03:23:59 84° W 03:28:39 10° N
Cosmos 1825 3.4 03:24:54 28° WNW 03:24:54 28° WNW 03:27:58 10° NNW
Okean 1-7 3.4 03:28:30 10° N 03:32:53 62° E 03:35:30 23° SSE
CBERS-1 4.4 03:29:36 10° N 03:34:33 49° WNW 03:36:18 34° WSW
Cosmos 1535 Rocket 4.4 03:29:48 10° N 03:35:56 84° W 03:40:00 23° S
ARIANE 5 R/B 2.5 03:31:21 10° NNE 03:36:22 78° ESE 03:38:45 32° S
Helios 1A Rocket 4.3 03:33:21 10° NNE 03:36:59 32° E 03:39:21 18° SSE
Cosmos 1656 Rocket 4.1 03:35:19 32° WSW 03:37:37 50° WNW 03:43:06 10° NNE
Meteor 2-6 Rocket 4.1 03:33:36 10° NNW 03:38:57 67° W 03:41:39 30° S
Cosmos 1833 4.4 03:33:37 10° NW 03:38:59 49° WSW 03:41:13 31° SSW
Cosmos 1437 Rocket 2.9 03:38:22 38° S 03:39:51 75° E 03:43:58 10° NNE
Cosmos 1605 Rocket 4.4 03:34:11 10° N 03:40:12 62° E 03:46:16 10° SSE
IRS-1C 4.3 03:37:24 10° N 03:42:39 58° WNW 03:44:59 32° SW
Cosmos 44 4.1 03:41:11 24° SSE 03:43:22 39° ESE 03:47:53 10° NE
H-2A R/B 2.9 03:42:05 10° N 03:45:52 41° WNW 03:46:46 35° WSW
Cosmos 1782 3.7 03:43:20 10° NNW 03:46:50 30° W 03:46:59 30° W
Cosmos 1763 Rocket 3.5 03:42:46 10° NNW 03:47:42 54° WSW 03:50:06 28° SSW
ATLAS 2A CENTAUR R/B 4.3 03:46:15 21° SSW 03:49:01 23° S 03:54:21 10° SE
Cosmos 1943 Rocket 4.1 03:46:20 12° W 03:49:15 18° NW 03:52:56 10° N
NOSS 2 (F) 4.5 03:47:26 10° NW 03:50:19 69° WSW 03:51:14 41° SSE
SEDSat Delta rocket 4.5 03:53:41 18° SSE 03:53:41 18° SSE 03:55:27 10° SE
ADEOS 4.0 03:47:35 10° NNE 03:52:44 57° E 03:56:40 17° S
Meteor 1-10 Rocket 4.4 03:47:23 10° NNW 03:52:45 50° W 03:55:39 26° SSW
Cosmos 1867 3.8 03:50:53 29° SW 03:53:35 60° NW 03:59:00 10° NNE
PSLV R/B 3.9 03:51:55 29° S 03:53:56 66° WSW 03:58:08 10° NNW
Cosmos 1812 4.5 03:51:38 10° NNE 03:55:07 31° ENE 03:58:35 10° SE
SL-08 R/B 4.0 03:55:04 30° SW 03:56:19 34° W 04:00:38 10° NNW
Meteor 1-27 Rocket 3.7 03:50:34 10° N 03:56:22 82° W 04:01:39 13° S
Cosmos 1934 Rocket 4.1 03:53:40 10° NNW 03:59:55 61° W 04:04:31 18° SSW
Cosmos 1814 Rocket 4.3 03:55:40 10° NNW 04:00:42 46° WSW 04:03:42 22° SSW
CZ-2D R/B 2.9 03:56:09 10° N 04:00:58 36° WNW 04:03:34 23° WSW
Cosmos 292 Rocket 3.9 03:57:28 10° NNW 04:02:09 51° WSW 04:05:12 20° S
BREEZE-M R/B 3.7 04:00:43 21° SSW 04:04:49 43° SE 04:08:08 10° ENE
Cosmos 2219 3.5 04:00:00 10° NNW 04:05:40 71° ENE 04:11:16 10° SSE
Cosmos 1818 3.9 04:03:40 10° NW 04:08:51 44° WSW 04:13:59 10° S
Spot 4 Rocket 4.4 04:04:13 10° N 04:09:11 50° WNW 04:12:12 23° SW
Cosmos 540 Rocket 3.4 04:04:50 10° NNW 04:09:59 87° WSW 04:15:06 10° SSE
ADEOS II 2.5 04:05:16 10° NNE 04:10:30 63° E 04:15:22 12° S
BREEZE-M TANK 3.8 04:11:12 10° WNW 04:13:53 26° N 04:16:25 10° ENE
PKM 4.4 04:06:54 10° NW 04:14:48 63° SW 04:18:15 10° SSE
Cosmos 841 Rocket 3.9 04:11:17 10° NNW 04:16:11 43° WSW 04:20:11 15° SSW
Cosmos 2221 Rocket 3.8 04:17:32 10° NNW 04:21:49 49° W 04:25:10 16° SSW
Meteor 1-4 Rocket 3.1 04:22:02 24° SW 04:23:46 41° WNW 04:27:16 10° N
Delta 2 Rocket 3.7 04:22:53 17° WSW 04:26:15 61° S 04:31:18 10° E
Lacrosse 4 Rocket 3.2 04:24:15 13° W 04:26:54 21° NW 04:30:21 10° N
COSMOS 2455 2.8 04:21:32 10° NW 04:27:29 62° WSW 04:33:22 10° SSE
Cosmos 1184 Rocket 3.5 04:24:50 10° NNW 04:27:49 34° W 04:29:22 21° SW
Cosmos 1727 Rocket 4.1 04:25:00 14° SSW 04:30:23 64° W 04:36:37 10° N
GPS 2-04 Rocket1 4.0 04:30:49 17° SSW 04:33:01 27° SSE 04:36:24 10° ESE
Cosmos 2297 Rocket 3.3 04:30:11 10° NNW 04:35:39 48° ENE 04:41:06 10° SE
Resurs 1-4 Rocket 3.9 04:32:39 10° NNW 04:36:06 18° WNW 04:39:28 10° WSW
Cosmos 1354 Rocket 4.3 04:32:52 16° SW 04:36:56 54° WNW 04:42:04 10° N
Cosmos 2173 Rocket 4.4 04:31:03 10° N 04:37:07 66° E 04:43:09 10° SSE
CZ-2D R/B 4.2 04:34:57 10° N 04:38:55 37° WNW 04:41:58 15° SW
Cosmos 2227 Rocket 2.8 04:38:06 10° NNW 04:43:46 63° ENE 04:49:21 10° SSE
Cosmos 1271 Rocket 4.4 04:41:01 10° SSE 04:44:37 34° E 04:48:13 10° NNE
ATLAS CENTAUR R/B 1.2 04:42:12 13° SSW 04:45:25 79° ESE 04:49:21 10° NNE
UNKNOWN OBJECT B 3.9 04:42:46 10° N 04:46:15 30° WNW 04:49:16 13° SW
SL-19 R/B 4.3 04:43:15 10° SSE 04:46:27 71° ENE 04:50:08 10° N
PSLV R/B 4.0 04:45:12 10° NNE 04:49:34 63° ESE 04:53:54 10° S
Meteor 1-20 Rocket 4.3 04:44:05 10° S 04:49:40 89° W 04:55:25 10° N
Meteor 1-14 Rocket 4.3 04:45:51 10° SSW 04:51:29 80° W 04:57:18 10° N
USA 229 DEB 3.8 04:45:36 10° NW 04:52:48 69° WSW 05:00:10 10° SSE
USA 229 3.8 04:45:42 10° NW 04:52:54 70° WSW 05:00:16 10° SSE
Cosmos 374 Rocket 4.4 04:50:10 10° NW 04:54:45 70° WSW 04:58:37 10° SSE
Cosmos 389 Rocket 3.1 04:52:11 11° SSW 04:55:24 40° WNW 04:58:50 10° N
Milstar 3 Cent rocket 4.0 04:42:20 10° WSW 04:56:21 46° S 05:03:18 10° ESE
Meteor 1-18 Rocket 4.3 04:52:21 10° N 04:58:04 87° E 05:03:39 10° S
SeaSat 1 3.6 04:53:39 10° SE 04:58:24 50° ENE 05:03:09 10° NNW
PSLV R/B 3.1 04:56:23 10° WNW 04:59:21 74° NNE 05:02:17 10° E
Meteor 2-12 Rocket 4.4 04:53:48 10° N 04:59:56 78° W 05:06:01 10° S
SL-16 R/B 4.3 05:02:03 10° W 05:02:59 10° W 05:03:54 10° W
Cosmos 2016 Rocket 4.3 04:58:43 10° N 05:05:08 78° E 05:11:28 10° S
Cosmos 44 Rocket 3.6 05:01:22 10° SW 05:06:06 56° NW 05:11:02 10° NNE
Cosmos 1802 Rocket 4.0 05:00:09 10° N 05:06:27 86° W 05:12:37 10° S
Cosmos 2061 Rocket 4.0 05:01:54 10° N 05:08:09 85° W 05:14:24 10° S
GEOS 3 Rocket 3.8 05:02:59 10° NE 05:08:18 75° ESE 05:13:28 10° SSW
Meteor 1-25 Rocket 4.4 05:05:03 10° SSW 05:10:28 54° WNW 05:15:55 10° N
Cosmos 968 Rocket 4.0 05:07:16 10° SW 05:12:19 46° WNW 05:17:24 10° N
Cosmos 1782 Rocket 4.2 05:09:35 10° S 05:13:56 61° E 05:18:16 10° NNE
Cosmos 192 4.3 05:11:28 10° NNW 05:16:26 77° WSW 05:21:23 10° SSE
Cosmos 1378 Rocket 3.6 05:12:03 10° N 05:16:30 79° W 05:20:56 10° S
Geosat 4.3 05:11:54 10° NNE 05:16:56 71° ESE 05:21:56 10° SSW
Cosmos 2082 3.8 05:11:20 10° NNW 05:17:01 87° ENE 05:22:38 10° SSE
